Regional Weather Roundup
Issued by NWS

Home | Current Version | Previous Version | Text Only | Print | Product List | Glossary On
Versions: 1 2 3 4 5 6 7 8 9 10 11 12 13 14 15 16 17 18 19 20 21 22 23 24 25 26 27 28 29 30 31 32 33 34 35 36 37 38 39 40 41 42 43 44 45 46 47 48 49 50
000
ASUS43 KFSD 031202
RWRSD

WEATHER ROUNDUP FOR SOUTH DAKOTA
NATIONAL WEATHER SERVICE SIOUX FALLS SD
700 AM CDT TUE AUG 03 2021

NOTE: "FAIR" INDICATES FEW OR NO CLOUDS BELOW 12,000 FEET WITH NO
SIGNIFICANT WEATHER AND/OR OBSTRUCTIONS TO VISIBILITY.


SDZ001>005-009-010-012>017-031300-
NORTHWEST AND NORTH CENTRAL SOUTH DAKOTA

CITY           SKY/WX    TMP DP  RH WIND       PRES   REMARKS
BUFFALO          N/A     60  50  69 E6        30.04R
FAITH            N/A     62  57  83 SE14      30.06R
MOBRIDGE       CLEAR     65  58  78 SE8       30.04R HAZE
$$

SDZ012>016-024>037-041>051-057-063-072>074-031300-
SOUTHWEST AND SOUTH CENTRAL SOUTH DAKOTA

CITY           SKY/WX    TMP DP  RH WIND       PRES   REMARKS
RAPID CTY ARPT PTCLDY    56  50  80 CALM      30.06R
PIERRE         CLEAR     64  58  80 SE8       30.05R
CUSTER         CLEAR     52  43  71 NW3       30.20S
ELLSWORTH AFB  PTCLDY    64  48  54 CALM      30.06R
PHILIP         CLEAR     58  56  93 E8        30.04R
PINE RIDGE     CLEAR     55  50  83 E3        30.05S
SPEARFISH      FAIR      61  46  59 W5        30.10S
WINNER         CLEAR     60  55  83 SE7       30.07S
$$

SDZ004>011-016>023-039-040-031300-
NORTHEAST SOUTH DAKOTA

CITY           SKY/WX    TMP DP  RH WIND       PRES   REMARKS
ABERDEEN       PTCLDY    55  51  86 S3        30.07S FOG
WATERTOWN      CLEAR     57  55  93 CALM      30.10S FOG
BROOKINGS      CLEAR     59  56  89 SE3       30.12S FOG
SISSETON         N/A     66  59  78 SW6       30.06R
$$

SDZ017-020-022-023-036>040-048>070-031300-
SOUTHEAST SOUTH DAKOTA

CITY           SKY/WX    TMP DP  RH WIND       PRES   REMARKS
SIOUX FALLS    PTCLDY    64  56  75 CALM      30.12R
HURON          CLEAR     59  57  93 S7        30.08S FOG
MITCHELL       CLEAR     60  58  92 SE7       30.10R FOG
YANKTON        CLEAR     58  57  97 E3        30.12S FOG
$$

ABBREVIATIONS USED IN REMARKS
   TC - TEMPERATURE IN CELSIUS
  WCI - WIND CHILL INDEX
   HX - HEAT INDEX
  VSB - VISIBILITY




USA.gov is the U.S. government's official web portal to all federal, state and local government web resources and services.